SL-16 DEB, 22407

Orbit data source: Space-Track

SL-16 DEB, 22407 is space debris in LEO originally from a launch on Fri, 25 Dec 1992 UTC launched from the Tyuratam Missile And Space Complex (TTMTR). Debris objects in space refer to the collection of defunct objects orbiting the Earth. Examples of debris include non-operational satellites, rocket bodies, and fragments generated from explosions, collisions, or faulty payload assembly.

Loading next visibility...
Identifier
22407, 1992-093CY
Orbit
LEO
Country
Flag of CISCIS
Related business
Manufacturer
Unknown
Mission
Spacecraft
Bus & Motor
Unknown
Mass
Unknown
Launch date (UTC)
1992-12-25 (33 years ago)
Launch vehicle
Unknown
Launch site
Tyuratam Missile And Space Complex (TTMTR)
Object type
Payload
Rocket body
Debris
Shape & HBR
Unknown shape, 0.1 m
Radar Cross Section
Small (<0.1 m²)

Expand to show TLE details & history
Last TLE update: 17 hours ago

TLE from 17 hours ago
0 SL-16 DEB
1 22407U 92093CY  26036.85612079  .00000585  00000-0  49895-3 0  9999
2 22407  70.8584 204.8296 0181028 230.5348 127.9625 13.84091744665869
Epoch: 2026-02-05T20:32Z
TLE epoch observation values (Epoch: 2026-02-05T20:32:48.836Z)
Latitude
0.00002°
Longitude
120.62377°
Altitude
1,034.843 km
Speed
7.293 km/s
True Right ascension
13h 39m 19s
True Declination
0° 00' 00"
Sunlit
Object was in daylight at epoch
Visualization orbit readout
Latitude
Unknown
Longitude
Unknown
Altitude
Unknown
Speed
Unknown
Apparent Right ascension
Unknown
Apparent Declination
Unknown
Sunlit
N/A
Visualization observer readout
Local Sidereal Time
15:52:07
Azimuth
Unknown
Elevation
Unknown
Doppler factor
Unknown
Orbital elements
Apogee altitude
1,079.99 km
Perigee altitude
814.765 km
Semi-major axis
7,325.515 km
Eccentricity
0.0181
Inclination
70.8584°
RAAN
204.8296°
Arg. of periapsis
230.5348°
True anomaly
129.57533°
Mean anomaly
127.9625°
Eccentric anomaly
128.77117°
Mean motion
3.46167 °/min
Orbital period
104 mins
BSTAR
0.00049895
Loading maneuver chart data...
Computing Atmospheric mass density...

Documentation

Showing up to 5 results
|